Regional Weather Roundup
Issued by NWS New Orleans/Baton Rouge, LA

Home | Current Version | Previous Version | Graphics & Text | Print | Product List | Glossary On
Versions: 1 2 3 4 5 6 7 8 9 10 11 12 13 14 15 16 17 18 19 20 21 22 23 24 25 26 27 28 29 30 31 32 33 34 35 36 37 38 39 40 41 42 43 44 45 46 47 48 49 50
344
ASUS44 KLIX 240710
RWRLIX
NEW ORLEANS REGIONAL WEATHER ROUNDUP
NATIONAL WEATHER SERVICE NEW ORLEANS LA
200 AM CDT FRI OCT 24 2014

NOTE: "FAIR" INDICATES FEW OR NO CLOUDS BELOW 12,000 FEET WITH NO
      SIGNIFICANT WEATHER AND/OR OBSTRUCTIONS TO VISIBILITY.
      SKY/WX - SKY CONDITION AND SIGNIFICANT WEATHER.
      TMP - AIR TEMPERATURE.     DP    - DEWPOINT TEMPERATURE.
      RH  - RELATIVE HUMIDITY.   PRES  - PRESSURE.
      HI  - HEAT INDEX.          WCI   - WIND CHILL INDEX.

*  THESE STATIONS ARE NOT NWS OR FAA STATIONS AND ARE NOT UNDER
   NWS QUALITY CONTROL.

LAZ038-040-048-061>063-065>067-069-240800-
SOUTHEAST LOUISIANA

CITY           SKY/WX    TMP DP  RH WIND       PRES   REMARKS
N.O. AUDUBON     N/A     61  52  72 MISG        N/A
N.O. INTL ARPT PTCLDY    63  49  60 NE9       30.07S
N.O. LAKEFRONT CLEAR     66  51  58 NE15      30.07F
N.O. DOWNTOWN*   N/A     64  45  48 NE7       30.07S
SLIDELL        CLEAR     50  47  89 CALM      30.07S
BATON ROUGE    CLEAR     53  49  86 VRB3      30.10S
BOOTHVILLE     CLEAR     66  59  78 N5        30.06R
BELLE CHASSE   CLEAR     53  50  89 CALM      30.06F
BOGALUSA*        N/A     51  47  86 CALM      30.10S
NEW ROADS*       N/A     51  49  93 CALM      30.10S
GONZALES*        N/A     53  53 100 CALM      30.08S
HAMMOND*       CLEAR     50  46  87 N5        30.10S
HOUMA*         CLEAR     54  52  92 CALM      30.07S
PORT FOURCHON* SUNNY     66  59  77 N6        30.09R

$$

MSZ070-080>082-240800-
SOUTHERN MISSISSIPPI

CITY           SKY/WX    TMP DP  RH WIND       PRES   REMARKS
MCCOMB         CLEAR     54  48  80 N6        30.10S
GULFPORT       CLEAR     58  46  64 N5        30.05F
BILOXI         CLEAR     58  48  68 NE8       30.06S
PASCAGOULA     PTCLDY    48  46  93 CALM      30.06S

$$

COASTAL OBSERVATIONS
LAKE AND NEARSHORE STATIONS

STATION/POSITION TIME  TEMP    WIND        PRES    WAVE
                       AIR SEA DIR/SP/G            HT/PER
                 (UTC) (F)     (DEG/KT/KT) (MB)    (FT/S)
PASCAGOULA       0700   58     360/  7/  9 1017.3
WAVELAND YACHT   0700   62      40/  9/ 11 1017.0
GRAND ISLE       0700   68 73   30/  6/  9 1018.2
SOUTHWEST PASS   0700   69 81              1017.5
NEW CANAL        0700   66 70   60/ 13/ 15 1018.2
SHELL BEACH      0700   67 67   50/ 13/ 15 1017.6

OFFSHORE STATIONS

STATION/POSITION TIME  TEMP    WIND        PRES    WAVE
                       AIR SEA DIR/SP/G            HT/PER
                 (UTC) (F)     (DEG/KT/KT) (MB)    (FT/S)
64 S DAUPHIN ISL 0641   72 78   10/ 10/ 12 1017.6    3/ 7

$$




USA.gov is the U.S. government's official web portal to all federal, state and local government web resources and services.